Stations météo

réclame
Mon MeteoGroup
Chivenor, Grande-Bretagne (3707): Température de l'air & dewpoint: 11.01.2018 07:00:00 - 17.01.2018 07:00:00 (GMT)Chivenor, Grande-Bretagne (3707): Température de l'air -20cm & Température de l'air -100cm: 11.01.2018 07:00:00 - 17.01.2018 07:00:00 (GMT)Chivenor, Grande-Bretagne (3707): Vitesse du vent & gusts: 11.01.2018 07:00:00 - 17.01.2018 07:00:00 (GMT)Chivenor, Grande-Bretagne (3707): Direction du vent: 11.01.2018 07:00:00 - 17.01.2018 07:00:00 (GMT)Chivenor, Grande-Bretagne (3707): reduced air pressure: 11.01.2018 07:00:00 - 17.01.2018 07:00:00 (GMT)Chivenor, Grande-Bretagne (3707): visibility: 11.01.2018 07:00:00 - 17.01.2018 07:00:00 (GMT)Chivenor, Grande-Bretagne (3707): Quantités de précipitations: 11.01.2018 07:00:00 - 17.01.2018 07:00:00 (GMT)
Date & Time tt [°C] td [°C] tt -20cm [°C] tt -100cm [°C] ff [km/h] ff [knt] fx [km/h] fx [knt] dd ppp [hPa] vv [km] rr [mm]
17.01.2018 07:00:00 - - - - - - - - - - - -
17.01.2018 06:00:00 6,6 0,2 - - 48 26 74 40 WNW 1008,0 15 0,0
17.01.2018 05:00:00 6,5 0,7 - - 57 31 81 44 WNW 1006,8 14 0,0
17.01.2018 04:00:00 6,0 1,0 - - 55 30 78 42 WNW 1005,5 12 0,0
17.01.2018 03:00:00 5,8 -0,1 - - 55 30 83 45 WNW 1004,0 13 0,0
17.01.2018 02:00:00 5,6 0,9 - - 59 32 83 45 WNW 1002,7 18 0,0
17.01.2018 01:00:00 5,5 0,3 - - 57 31 83 45 WNW 1001,7 24 0,0
17.01.2018 00:00:00 5,1 0,4 - - 61 33 89 48 WNW 1001,2 15 0,2
16.01.2018 23:00:00 5,5 -0,5 - - 57 31 87 47 WNW 1000,3 25 0,0
16.01.2018 22:00:00 5,3 -0,6 - - 54 29 87 47 WNW 999,3 26 0,0
16.01.2018 21:00:00 4,2 1,6 - - 50 27 102 55 WNW 998,9 23 0,2
16.01.2018 20:00:00 5,1 2,1 - - 41 22 63 34 WNW 998,0 18 1,0
16.01.2018 19:00:00 3,8 0,3 - - 59 32 78 42 NW 998,2 10 0,4
16.01.2018 18:00:00 5,8 1,0 - - 42 23 63 34 WNW 997,8 21 0,6
16.01.2018 17:00:00 5,6 3,0 - - 46 25 74 40 W 997,2 9 0,2
16.01.2018 16:00:00 6,3 3,7 - - 42 23 68 37 W 997,4 7 -
16.01.2018 15:00:00 6,6 4,5 - - 39 21 70 38 W 997,8 14 0,4
16.01.2018 14:00:00 6,8 4,2 - - 48 26 65 35 W 998,5 13 0,2
16.01.2018 13:00:00 6,1 3,5 - - 37 20 72 39 W 999,6 15 0,2
16.01.2018 12:00:00 7,7 2,5 - - 35 19 57 31 WNW 1000,1 18 0,0
16.01.2018 11:00:00 7,5 1,9 - - 42 23 72 39 WNW 1000,6 18 0,0
16.01.2018 10:00:00 7,4 2,3 - - 46 25 63 34 WNW 1000,2 20 0,0
16.01.2018 09:00:00 7,4 2,6 7,2 7,9 39 21 63 34 WNW 999,6 17 0,0
16.01.2018 08:00:00 7,3 2,1 - - 46 25 72 39 WNW 998,9 15 0,0
16.01.2018 07:00:00 7,8 2,0 - - 52 28 68 37 WNW 998,3 23 0,0
16.01.2018 06:00:00 6,4 3,8 - - 37 20 80 43 WNW 998,2 13 0,0
16.01.2018 05:00:00 6,8 3,7 - - 37 20 59 32 WNW 997,7 14 0,2
16.01.2018 04:00:00 7,9 3,2 - - 46 25 67 36 WNW 997,7 12 0,0
16.01.2018 03:00:00 7,6 3,3 - - 52 28 76 41 WNW 997,8 25 0,0
16.01.2018 02:00:00 8,7 5,0 - - 52 28 70 38 WNW 996,9 18 0,0
16.01.2018 01:00:00 8,4 6,3 - - 39 21 72 39 W 996,5 9 0,6
16.01.2018 00:00:00 8,9 6,3 - - 37 20 61 33 W 997,4 9 0,2
15.01.2018 23:00:00 8,1 6,2 - - 46 25 70 38 W 997,4 7 0,0
15.01.2018 22:00:00 8,7 6,3 - - 35 19 55 30 W 997,4 11 0,0
15.01.2018 21:00:00 8,8 5,9 - - 39 21 59 32 W 997,6 10 0,0
15.01.2018 20:00:00 9,1 6,0 - - 29 16 55 30 W 997,7 14 0,0
15.01.2018 19:00:00 8,9 6,1 - - 34 18 52 28 W 997,9 13 0,0
15.01.2018 18:00:00 9,1 6,3 - - 34 18 46 25 W 997,9 14 0,0
15.01.2018 17:00:00 9,0 5,8 - - 35 19 54 29 W 998,1 15 0,0
15.01.2018 16:00:00 9,0 6,1 - - 29 16 55 30 W 997,9 15 0,0
15.01.2018 15:00:00 9,3 5,8 - - 37 20 57 31 W 997,8 14 0,0
15.01.2018 14:00:00 10,1 6,7 - - 35 19 55 30 W 997,2 19 0,0
15.01.2018 13:00:00 10,0 8,1 - - 35 19 57 31 W 997,2 11 0,0
15.01.2018 12:00:00 10,3 9,5 - - 34 18 54 29 W 997,1 8 0,2
15.01.2018 11:00:00 10,3 9,7 - - 39 21 55 30 W 997,1 3,6 0,4
15.01.2018 10:00:00 10,4 10,0 - - 37 20 68 37 W 997,6 10 0,2
15.01.2018 09:00:00 10,6 10,0 6,7 7,7 44 24 61 33 WSW 998,2 4,8 2,2
15.01.2018 08:00:00 10,1 9,7 - - 34 18 52 28 WSW 998,4 3,3 1,8
15.01.2018 07:00:00 10,3 9,7 - - 37 20 46 25 WSW 999,8 2,0 0,2
15.01.2018 06:00:00 10,4 9,8 - - 41 22 55 30 WSW 1001,0 19 0,2
15.01.2018 05:00:00 10,2 9,5 - - 41 22 55 30 SW 1002,2 3,4 1,0
15.01.2018 04:00:00 9,4 8,6 - - 29 16 50 27 SW 1003,8 9 1,2
15.01.2018 03:00:00 8,8 7,9 - - 35 19 50 27 SSW 1005,2 9 0,6
15.01.2018 02:00:00 8,5 7,5 - - 28 15 50 27 SSW 1007,1 8 -
15.01.2018 01:00:00 9,0 6,5 - - 31 17 - - SSW 1009,1 45 0,0
15.01.2018 00:00:00 8,5 6,5 - - 21 11 - - SSW 1010,5 50 0,0
14.01.2018 23:00:00 8,3 6,2 - - 24 13 - - SSW 1012,4 35 0,0
14.01.2018 22:00:00 7,8 5,8 - - 22 12 - - S 1013,2 14 0,0
14.01.2018 21:00:00 7,1 4,7 - - 18 10 - - S 1014,1 14 0,0
14.01.2018 20:00:00 6,7 4,3 - - 21 11 - - S 1014,8 14 0,0
14.01.2018 19:00:00 6,1 3,8 - - 11 6 - - SSE 1015,8 12 0,0
14.01.2018 18:00:00 6,8 4,2 - - 22 12 - - S 1015,4 12 0,0
14.01.2018 17:00:00 7,4 4,4 - - 18 10 - - S 1016,2 16 0,0
14.01.2018 16:00:00 6,7 4,5 - - 11 6 - - SE 1016,0 10 0,0
14.01.2018 15:00:00 7,4 4,5 - - 13 7 - - ESE 1016,5 13 0,0
14.01.2018 14:00:00 7,5 4,3 - - 13 7 - - SE 1017,2 17 0,0
14.01.2018 13:00:00 7,0 4,1 - - 15 8 - - ESE 1017,8 9 0,0
14.01.2018 12:00:00 6,4 3,7 - - 11 6 - - ESE 1018,7 9 0,0
14.01.2018 11:00:00 4,9 3,5 - - 16 9 - - ESE 1018,5 6 0,0
14.01.2018 10:00:00 3,4 2,5 - - 11 6 - - E 1018,8 5 0,0
14.01.2018 09:00:00 1,9 1,3 6,0 7,7 11 6 - - E 1018,6 4,6 0,0
14.01.2018 08:00:00 2,1 1,4 - - 13 7 - - E 1017,8 5 0,0
14.01.2018 07:00:00 2,6 1,8 - - 15 8 - - ESE 1017,5 5 0,0
14.01.2018 06:00:00 2,8 1,8 - - 15 8 - - E 1017,2 6 0,0
14.01.2018 05:00:00 3,7 2,7 - - 15 8 - - ESE 1017,3 7 0,0
14.01.2018 04:00:00 4,6 3,8 - - 13 7 - - ESE 1017,2 8 0,0
14.01.2018 03:00:00 4,2 3,4 - - 13 7 - - ESE 1016,9 5 0,2
14.01.2018 02:00:00 4,7 3,4 - - 15 8 - - ESE 1016,6 5 -
14.01.2018 01:00:00 6,4 4,9 - - 11 6 - - E 1016,7 11 0,0
14.01.2018 00:00:00 6,1 5,1 - - 13 7 - - E 1016,5 10 0,0
13.01.2018 23:00:00 5,8 4,6 - - 11 6 - - ESE 1016,1 9 0,0
13.01.2018 22:00:00 6,7 5,3 - - 18 10 - - ESE 1015,6 10 0,0
13.01.2018 21:00:00 7,0 5,5 - - 18 10 - - ESE 1015,4 11 0,0
13.01.2018 20:00:00 6,9 5,7 - - 21 11 - - ESE 1015,3 9 0,0
13.01.2018 19:00:00 6,8 5,8 - - 21 11 - - E 1014,9 9 0,0
13.01.2018 18:00:00 7,3 6,3 - - 21 11 - - ESE 1014,8 6 0,2
13.01.2018 17:00:00 7,4 6,1 - - 16 9 - - ESE 1014,2 19 0,0
13.01.2018 16:00:00 7,6 6,4 - - 15 8 - - ESE 1013,7 15 0,0
13.01.2018 15:00:00 7,7 6,6 - - 22 12 - - ESE 1013,4 13 0,4
13.01.2018 14:00:00 7,7 6,5 - - 24 13 - - ESE 1013,4 11 0,4
13.01.2018 13:00:00 7,9 6,3 - - 28 15 - - SE 1013,8 9 0,0
13.01.2018 12:00:00 8,0 6,1 - - 29 16 - - SE 1013,9 15 0,0
13.01.2018 11:00:00 7,7 6,1 - - 29 16 50 27 SE 1014,0 14 0,0
13.01.2018 10:00:00 7,6 5,9 - - 29 16 - - SE 1014,0 15 0,2
13.01.2018 09:00:00 7,1 5,5 6,0 7,9 29 16 48 26 SE 1013,9 13 0,2
13.01.2018 08:00:00 6,9 5,1 - - 31 17 46 25 SE 1013,7 10 0,2
13.01.2018 07:00:00 7,0 4,5 - - 31 17 46 25 SE 1013,8 13 0,0
13.01.2018 06:00:00 7,0 4,6 - - 28 15 - - SE 1014,3 14 0,0
13.01.2018 05:00:00 6,9 4,5 - - 29 16 - - SE 1014,9 12 0,0
13.01.2018 04:00:00 6,7 4,2 - - 28 15 - - SE 1015,3 12 0,0
13.01.2018 03:00:00 6,6 4,1 - - 22 12 - - SE 1016,0 12 0,0
13.01.2018 02:00:00 6,8 3,8 - - 29 16 - - SSE 1016,6 16 0,0
13.01.2018 01:00:00 6,2 3,9 - - 26 14 - - ESE 1016,8 18 0,0
13.01.2018 00:00:00 5,7 3,8 - - 24 13 - - ESE 1017,7 14 0,0
12.01.2018 23:00:00 6,3 4,1 - - 18 10 - - ESE 1018,4 16 0,0
12.01.2018 22:00:00 5,7 4,0 - - 21 11 - - ESE 1018,8 15 0,0
12.01.2018 21:00:00 5,8 4,2 - - 15 8 - - ESE 1019,8 12 0,0
12.01.2018 20:00:00 6,4 4,5 - - 16 9 - - E 1019,8 16 0,0
12.01.2018 19:00:00 6,9 5,2 - - 18 10 - - ESE 1020,1 15 0,0
12.01.2018 18:00:00 7,0 5,3 - - 18 10 - - SE 1020,6 17 0,0
12.01.2018 17:00:00 7,3 5,4 - - 18 10 - - ESE 1020,6 14 0,0
12.01.2018 16:00:00 7,9 6,0 - - 16 9 - - ESE 1021,0 11 0,0
12.01.2018 15:00:00 7,8 6,3 - - 22 12 - - ESE 1021,5 7 0,0
12.01.2018 14:00:00 7,8 6,0 - - 22 12 - - ESE 1022,5 7 0,0
12.01.2018 13:00:00 7,5 6,3 - - 22 12 - - SE 1022,6 6 0,0
12.01.2018 12:00:00 6,5 5,9 - - 21 11 - - ESE 1023,8 4,2 0,0
12.01.2018 11:00:00 5,6 5,2 - - 28 15 - - ESE 1025,0 3,2 0,0
12.01.2018 10:00:00 3,5 3,3 - - 13 7 - - ESE 1025,3 3,6 0,0
12.01.2018 09:00:00 2,6 2,4 5,4 8,0 15 8 - - ESE 1025,4 3,0 0,2
12.01.2018 08:00:00 2,2 1,9 - - 18 10 - - E 1025,3 4,3 0,0
12.01.2018 07:00:00 0,6 0,2 - - 21 11 - - E 1025,5 7 0,0
12.01.2018 06:00:00 0,2 0,0 - - 16 9 - - E 1025,3 7 0,0
12.01.2018 05:00:00 -0,1 -0,3 - - 15 8 - - E 1025,3 7 0,0
12.01.2018 04:00:00 0,3 0,2 - - 18 10 - - E 1025,9 7 0,0
12.01.2018 03:00:00 -0,3 -0,4 - - 13 7 - - E 1026,4 5 0,0
12.01.2018 02:00:00 0,0 -0,2 - - 9 5 - - E 1026,4 0,1 0,0
12.01.2018 01:00:00 0,4 0,1 - - 13 7 - - E 1026,5 0,1 0,0
12.01.2018 00:00:00 1,5 1,2 - - 13 7 - - E 1026,5 0,2 0,0
11.01.2018 23:00:00 2,9 2,4 - - 15 8 - - E 1026,0 0,3 0,0
11.01.2018 22:00:00 3,8 3,1 - - 8 4 - - S 1026,0 4,8 0,0
11.01.2018 21:00:00 4,1 3,5 - - 11 6 - - ESE 1025,7 8 0,0
11.01.2018 20:00:00 3,6 3,0 - - 9 5 - - E 1025,9 6 0,0
11.01.2018 19:00:00 3,3 2,6 - - 4 2 - - E 1025,2 6 0,0
11.01.2018 18:00:00 3,3 2,4 - - 5 3 - - NNW 1024,1 10 0,0
11.01.2018 17:00:00 3,5 1,8 - - 2 1 - - NW 1023,5 8 0,0
11.01.2018 16:00:00 5,9 3,6 - - 8 4 - - NNW 1023,6 19 0,0
11.01.2018 15:00:00 6,6 4,1 - - 13 7 - - NW 1023,4 23 0,0
11.01.2018 14:00:00 7,6 4,0 - - 9 5 - - NNW 1022,2 16 0,0
11.01.2018 13:00:00 6,5 4,3 - - 8 4 - - W 1021,5 10 0,0
11.01.2018 12:00:00 4,6 3,4 - - 4 2 - - WNW 1021,3 10 0,0
11.01.2018 11:00:00 4,8 4,1 - - 2 1 - - NE 1020,9 9 0,0
11.01.2018 10:00:00 1,2 0,8 - - 9 5 - - SE 1019,9 4,7 0,0
11.01.2018 09:00:00 0,1 -0,2 5,7 8,2 11 6 - - E 1019,4 1,6 0,0
11.01.2018 08:00:00 0,0 -0,6 - - 4 2 - - N 1018,1 5 0,0
11.01.2018 07:00:00 0,0 -0,8 - - 5 3 - - ESE 1016,2 3,1 0,0

tt = Température de l'air
td = dewpoint
tt -20cm = Température de l'air -20cm
tt -100cm = Température de l'air -100cm
ff = Vitesse du vent
fx = gusts
dd = Direction du vent
ppp = reduced air pressure
vv = visibility
rr = Quantités de précipitations

stations d'obs. à proximité